Location: ????????
(56.0167°N, 38.0333°E)
Time: 18:11:46
(UTC+00:00)

Cosmos 1680 Rocket - Pass Details

Date: 19 May 2025
Orbit: 757 x 776 km, 74.1° (Epoch: 20 June)

Event Time Altitude Azimuth Distance (km) Brightness Sun altitude
Exits shadow 22:39:26 15° 223° (SW) 2,000 5.1 -12.4°
Maximum altitude 22:43:49 64° 303° (WNW) 850 3.8 -12.2°
Drops below altitude 10° 22:49:01 10° 25° (NNE) 2,304 7.5 -11.9°
Sets 22:51:25 0° 29° (NNE) 3,232 8.8 -11.8°
